Location: Unspecified
(37.0090°N, 0.0000°E)
Time: 03:25:42
(UTC+00:00)

SOZ - Visible Passes

Search period start: 04 April 2026 00:00
Search period end: 14 April 2026 00:00
Orbit: 769 x 827 km, 66.6° (Epoch: 29 March)

Date Brightness Start Highest point End Pass type
(mag) Time Alt. Az. Time Alt. Az. Time Alt. Az.
4 Apr 10.4 04:27:01 10° N 04:30:51 18° NE 04:34:40 10° E visible
4 Apr 8.7 19:08:17 10° SSE 19:12:16 21° ESE 19:16:17 10° ENE visible
4 Apr 8.4 20:50:10 10° SW 20:55:28 49° WNW 21:00:52 10° NNE visible
5 Apr 10.6 03:59:01 10° N 04:02:05 15° NE 04:05:07 10° ENE visible
5 Apr 8.0 20:21:26 10° SW 20:26:53 65° WNW 20:32:25 10° NNE visible
5 Apr 10.7 22:10:14 10° NW 22:11:36 11° NW 22:12:59 10° NNW visible
6 Apr 10.8 03:31:26 10° NNE 03:33:16 11° NE 03:35:06 10° ENE visible
6 Apr 8.1 05:12:21 10° NNW 05:17:57 69° ENE 05:23:28 10° SE visible
6 Apr 7.6 19:52:50 10° SSW 19:58:19 86° WNW 20:03:55 10° NNE visible
6 Apr 10.5 21:40:00 10° WNW 21:42:48 14° NW 21:45:36 10° NNW visible
7 Apr 8.6 04:43:54 10° NNW 04:49:22 52° ENE 04:54:46 10° SE visible
7 Apr 7.5 19:24:22 10° SSW 19:29:48 73° ESE 19:35:21 10° NNE visible
7 Apr 10.3 21:10:23 10° W 21:14:00 17° NW 21:17:41 10° N visible
8 Apr 9.1 04:15:29 10° NNW 04:20:45 40° NE 04:25:57 10° SE visible
8 Apr 7.7 18:56:00 10° S 19:01:18 54° ESE 19:06:43 10° NE visible
8 Apr 10.0 20:41:02 10° W 20:45:16 22° NW 20:49:33 10° N visible
9 Apr 9.5 03:47:08 10° N 03:52:07 31° NE 03:57:00 10° ESE visible
9 Apr 9.7 20:11:53 10° WSW 20:16:33 28° NW 20:21:19 10° N visible
10 Apr 9.9 03:18:52 10° N 03:23:25 25° NE 03:27:55 10° ESE visible
10 Apr 7.9 05:01:55 10° NW 05:07:17 48° WSW 05:12:33 10° S visible
10 Apr 9.3 19:42:52 10° WSW 19:47:54 36° NW 19:53:01 10° NNE visible
11 Apr 10.2 02:50:42 10° N 02:54:42 20° NE 02:58:40 10° E visible
11 Apr 7.6 04:33:16 10° NW 04:38:48 64° WSW 04:44:14 10° SSE visible
11 Apr 8.9 19:14:00 10° SW 19:19:15 46° WNW 19:24:38 10° NNE visible
12 Apr 10.4 02:22:39 10° N 02:25:56 16° NE 02:29:11 10° E visible
12 Apr 7.6 04:04:40 10° NNW 04:10:17 85° WSW 04:15:49 10° SSE visible
12 Apr 11.0 20:34:51 10° NW 20:35:28 10° NW 20:36:04 10° NNW visible
13 Apr 10.6 01:54:55 10° NNE 01:57:08 12° NE 01:59:20 10° ENE visible
13 Apr 7.8 03:36:08 10° NNW 03:41:45 74° ENE 03:47:15 10° SSE visible
13 Apr 10.7 20:04:06 10° WNW 20:06:38 13° NW 20:09:11 10° NNW visible
